Погода Лынтупы

Погода Лынтупы : погода сейчас, прогноз погоды и архив. Всё, что Вы хотите узнать о погоде Лынтупы!

Хотите узнать прогноз погоды Лынтупы? Тогда Вам сюда: Погода Лынтупы

Поиск расширенной информации на нашем сайте:

Другие новости

Новости СМИ2

Главная страница сайта

Новости сайта

03.07.2017

Напоминаем, что на нашем специализированном сайте Метеоцентр.Азия вы можете получить высокодетализированные автоматические прогнозы погоды по пунктам России, СНГ и мира в авиационном формате (включающие направление и скорость ветра, видимость, явления погоды, количество и форму облачности, нижнюю и верхнюю границу облачности).

Рекомендуем: Аренда опалубки колонн стойки для опалубки.

Погода Лынтупы - сегодня

Время (UTC), дата Ветер
(°,м/с) 
Видим.   Явления Облачность Т
(°С)
Тd
(°С)
f(%) Тe
(°С)
Pmin
(гПа)
dP
(гПа)
Po
(мм)
O2
(г/м3)
Тmin Tmax R s Состояние
почвы
15 19.07.17 260 (З) 15000 м    6/3 1000 м верхняя 
[Cu med, cong|Ci fib]
+20.7 +5.9 38 +21  1016.8  -1.2  744  278           
18 19.07.17 тихо ()   15000 м    ясно 
+18 +9.7 58 +19  1016.8  -0.3  744  280    +21.9       
21 19.07.17 тихо ()   10 км    3/3 600 м 
[Sc]
+10.4 +9.2 92 +11  1017.2  -0.2  744  287           
00 20.07.17 тихо ()   10 км    ясно 
+8.2 +7.1 93 +8  1016.8  -0.7  743  290           
03 20.07.17 тихо ()   10 км    1/1 1000 м 
[Sc]
+7.5 +6.8 95 +8  1015.9  -0.9  743  290           
06 20.07.17 тихо ()   15000 м    6/3 1000 м верхняя 
[Sc|Ci fib]
+18.5 +11 62 +21  1014.4  -0.5  742  278  +6.9         
09 20.07.17 240 (ЮЗ) 15000 м    8/8 1020 м кучево-дожд. 
[Cb cap]
+20.3 +9.7 51 +21  1013.4  -0.8  742  276           
15 20.07.17 300 (СЗ) 15000 м    6/6 1140 м 
[Cu Sc]
+21.1 +11.4 54 +24  1012.1  -0.3  741  275           
18 20.07.17 030 (СВ) 15000 м    6/6 1050 м 
[Sc]
+18.3 +10 58 +21  1012.7  0.3  741  278    +22.9       
21 20.07.17 010 (С) 15000 м    6/0 средняя 
[Ac trans]
+12.1 +9.8 86 +14  1014.3  742  284           
00 21.07.17 020 (С) 15000 м    8/0 средняя 
[Ac trans]
+10 +8.5 90 +11  1014.8  0.3  742  287           
03 21.07.17 тихо ()   15000 м    3/0 средняя 
[Ac cast]
+8.8 +8.2 96 +9  1015  0.1  742  288           
06 21.07.17 060 (СВ) 15000 м    6/0 верхняя 
[Ci sp]
+15.3 +9.9 70 +17  1015.3  743  282  +8.4         
09 21.07.17 040 (СВ) 15000 м    9/3 600 м верхняя 
[Cu hum|Ci fib]
+18 +8.1 52 +19  1016  0.8  743  280           
12 21.07.17 070 (В) 15000 м    9/1 600 м средняя, верхняя 
[Cu hum|Ac trans|Ci sp]
+19.3 +8.1 48 +20  1015.5  -0.3  743  278           
15 21.07.17 060 (СВ) 15000 м    9/1 600 м средняя, верхняя 
[Sc|Ac trans|Cs]
+19.7 +9.3 51 +21  1015.2  -0.3  743  278           
18 21.07.17 тихо ()   15000 м    9/0 средняя 
[Ac trans]
+17.5 +12.3 72 +22  1015.4  743  279    +20.1       
21 21.07.17 тихо ()   15000 м    9/0 средняя 
[Ac As]
+15.3 +11.2 77 +18  1015.8  0.3  743  281           
00 22.07.17 тихо ()   15000 м    9/0 средняя 
[Ac trans]
+14.4 +11.2 81 +17  1015.7  -0.2  743  282           
03 22.07.17 тихо ()   15000 м    9/0 средняя 
[Ac As]
+14 +11.4 84 +17  1015.9  0.2  743  283           
06 22.07.17 050 (СВ) 15000 м    6/0 средняя 
[Ac trans]
+16.9 +10.7 67 +20  1016.6  0.8  744  280  +13.6         
09 22.07.17 060 (СВ) 15000 м    8/8 800 м 
[Cu Sc]
+19.9 +9.4 51 +22  1016.8  0.5  744  278           
15 22.07.17 040 (СВ) 15000 м    6/4 600 м верхняя 
[Cu med, cong|Ci fib]
+22.7 +8.1 39 +23  1016.6  -0.1  744  275           
18 22.07.17 тихо ()   15000 м    3/1 1000 м средняя 
[Sc|Ac trans]
+18.7 +13.4 71 +25  1017.1  0.2  744  278    +23.6       
21 22.07.17 тихо ()   10 км    1/1 1000 м 
[Sc]
+12.2 +10.9 92 +15  1018.4  0.7  745  285           
Время (UTC), дата Ветер
(°,м/с) 
Видим.   Явления Облачность Т
(°С)
Тd
(°С)
f(%) Тe
(°С)
Pmin
(гПа)
dP
(гПа)
Po
(мм)
O2
(г/м3)
Тmin Tmax R s Состояние
почвы

Для получения пояснительной информации подведите курсор к названию столбца.

ПОГОДА Лынтупы - архив

Всё, что Вы хотите узнать о погоде Лынтупы - удобно и подробно!

Выберите нужную дату (начиная с 1 января 2015* года) и нажмите кнопку "Найти".
Будут отображены архивные сводки погоды по пункту Лынтупы, начиная с указанной даты.


Отображать данные в формате CSV (для использования в таблицах Excel)


Внимание! Наш архив погоды предназначен исключительно для личного некоммерческого использования в познавательных целях. Если Вам необходимы официальные справки о состоянии погоды (для производственных, юридических, коммерческих и т.п. целей), обращайтесь в органы Росгидромета.

*Примечание: данная дата относится к архиву по метеостанциям СССР (Россия, СНГ, Балтия).
Архив по метеостанциям Зарубежной Европы и Азии (кроме Китая) хранится 10 дней, по другим регионам земного шара (Китай, Африка, Америка, Австралия, Океания) - 1 день.

Лынтупы - район местоположения метеостанции


Название, широта, долгота, высота метеостанции:
Лынтупы 55.1°ш. 26.3°д. 212 м над ур. моря [Беларусь]

Дополнительная информация

В oтличие oт бoльшинства пoгoдных сайтoв мы публикуем пoдрoбную метеoинфoрмацию в детальнoм прoфессиoнальнoм фoрмате.

Характеристики температуры и влажнoсти вoздуха измеряются на высoте 2 м в тени вдали oт зданий и деревьев.
Скoрoсть ветра измеряется на высoте 10 м (на урoвне рoста челoвека скoрoсть ветра ниже в 1.5-2 раза). Если метеoстанция нахoдится в гoрoде или в лесу, тo скoрoсть ветра занижена на 2-4 м/с пo сравнению с oткрытым местoм. Скoрoсть ветра над акватoриями крупных рек и oзёр, а также на вершинах хoлмoв на 2-5 м/с выше, чем в oбычных услoвиях.
Атмoсфернoе давление в разных тoчках местнoсти мoжет значительнo oтличаться oт давления на метеoстанции, в зависимoсти oт услoвий рельефа (при пoдъёме на 10 м давление пoнижается примернo на 1 мм рт.ст.).